Вернуться в каталог

YUNHAI 2-2D

АктивенПогодаLEO
NORAD 59283·PAYLOAD·🇨🇳 China

Запущен Mar 21, 2024 с Jiuquan Satellite Launch Center

Loading…

Ближайшие Пролёты (ближайшие 24 часа)

TLE

СвежийSource: Space-Track

Эпоха: Sep 14, 2026, 12:50 UTC

1 59283U 24052D   26257.53529231 -.00000087  00000-0  29600-4 0  9999
2 59283  50.0061 243.6898 0004456 178.8962 181.1963 14.28021976131162

Отслеживайте YUNHAI 2-2D в реальном времени с AllMySat

Download on the App Store